Regional Weather Roundup
Issued by NWS

Home | Current Version | Previous Version | Text Only | Print | Product List | Glossary Off
Versions: 1 2 3 4 5 6 7 8 9 10 11 12 13 14 15 16 17 18 19 20 21 22 23 24 25 26 27 28 29 30 31 32 33 34 35 36 37 38 39 40 41 42 43 44 45 46 47 48 49 50

000
ASUS43 KDMX 172007
RWRIA

WEATHER ROUNDUP FOR IOWA
NATIONAL WEATHER SERVICE DES MOINES IA
300 PM CDT FRI APR 17 2015

NOTE: "FAIR" INDICATES FEW OR NO CLOUDS BELOW 12,000 FEET WITH NO
SIGNIFICANT WEATHER AND/OR OBSTRUCTIONS TO VISIBILITY.

* - THESE STATIONS ARE NOT NWS STATIONS...THUS NOT UNDER NWS
QUALITY CONTROL.  THEY ALSO DO NOT REPORT WEATHER SUCH
AS PRECIPITATION OR FOG.

IAZ001>003-012>014-020>022-031>034-043>046-172100-
   NORTHWEST IOWA

CITY           SKY/WX    TMP DP  RH WIND       PRES   REMARKS
CARROLL *      PTSUNNY   77  46  33 E6        30.03S
CHEROKEE *     MOSUNNY   75  45  33 E6        30.04F
DENISON *      MOSUNNY   73  50  43 VRB5      30.02F
LE MARS *      SUNNY     75  45  33 N8        30.05F
ORANGE CITY *  SUNNY     72  45  37 CALM      30.06F
SHELDON *      MOSUNNY   75  43  31 E8        30.05F
SIOUX CITY     CLOUDY    75  49  39 VRB6      30.04F
SPENCER        MOSUNNY   76  44  32 E3        30.05F
STORM LAKE *   SUNNY     73  43  33 VRB6      30.06F
$$

IAZ055>058-069>071-079>083-090>094-172100-
   SOUTHWEST IOWA

CITY           SKY/WX    TMP DP  RH WIND       PRES   REMARKS
ATLANTIC *     PTSUNNY   75  50  41 VRB6G15   30.04F
AUDUBON *      MOSUNNY   75  50  41 CALM      30.05F
CLARINDA *     MOSUNNY   75  54  46 SE7       30.04F
COUNCIL BLFS * MOSUNNY   75  54  46 VRB6G13   30.03F
CRESTON *      CLOUDY    75  55  50 SE8       30.04F
HARLAN  *      PTSUNNY   77  52  41 SE10      30.07S
LAMONI         PTSUNNY   76  54  46 VRB5      30.03F
RED OAK *      SUNNY     75  54  46 VRB6G13   30.03F
SHENANDOAH *   SUNNY     75  55  50 SE6G14    30.03F
$$

IAZ047>049-059>061-072>074-084-172100-
   CENTRAL IOWA

CITY           SKY/WX    TMP DP  RH WIND       PRES   REMARKS
AMES           MOSUNNY   79  49  34 NE6       30.02F
ANKENY *       PTSUNNY   79  52  38 S6        30.02F
CHARITON *     MOSUNNY   75  52  43 VRB5      30.03F
DES MOINES     PTSUNNY   80  49  33 VRB3      30.03F
GRINNELL*      MOSUNNY   77  48  36 CALM      30.04F
KNOXVILLE *    PTSUNNY   77  52  41 SE5       30.02F
MARSHALLTOWN   SUNNY     77  49  37 NW3       30.02F
PELLA *        MOSUNNY   77  54  44 E5        30.04F
PERRY *        PTSUNNY   79  46  31 E6        30.02F
$$

IAZ004>006-015-016-023>025-035-036-172100-
   NORTH CENTRAL IOWA

CITY           SKY/WX    TMP DP  RH WIND       PRES   REMARKS
ALGONA *       MOSUNNY   75  45  33 N7        30.05F
CLARION *      MOSUNNY   75  45  33 N9        30.04F
ESTHERVILLE    MOSUNNY   74  43  32 CALM      30.05F
FORT DODGE *   MOSUNNY   77  46  33 SW6       30.05F
MASON CITY     MOSUNNY   76  44  32 NW7       30.05F
FOREST CITY *  SUNNY     73  43  33 NW3       30.05F
IOWA FALLS *     N/A     77  45  31 CALM      30.04F
$$

IAZ007>011-017>019-026>030-037>042-050>054-066-172100-
   NORTHEAST IOWA

CITY           SKY/WX    TMP DP  RH WIND       PRES   REMARKS
CEDAR RAPIDS   CLOUDY    76  49  38 S6        30.03S
CHARLES CITY * SUNNY     77  45  31 N8        30.04F
CLINTON *      MOSUNNY   75  48  38 SE5       30.05F
DECORAH *      SUNNY     75  43  31 VRB6      30.02F
DUBUQUE        PTSUNNY   76  47  35 NW10      30.03F
MONTICELLO *   CLOUDY    75  48  38 VRB5      30.03S
OELWEIN *      MOSUNNY   75  46  35 CALM      30.04F
WATERLOO       SUNNY     77  47  34 S7        30.02F
$$

IAZ064-065-067-068-078-172100-
   EAST CENTRAL IOWA

CITY           SKY/WX    TMP DP  RH WIND       PRES   REMARKS
DAVENPORT      MOSUNNY   76  45  33 CALM      30.04F
IOWA CITY      PTSUNNY   78  51  38 VRB3      30.04F
MT. PLEASANT * CLOUDY    79  48  34 S7        30.03F
MUSCATINE *    PTSUNNY   77  48  36 SW7       30.03F
QUAD CITIES    PTSUNNY   78  45  30 CALM      30.02F
$$

IAZ062-063-075>077-085>089-095>099-172100-
   SOUTHEAST IOWA

CITY           SKY/WX    TMP DP  RH WIND       PRES   REMARKS
BURLINGTON     PTSUNNY   78  53  41 VRB5      30.02F
FAIRFIELD *    PTSUNNY   77  50  38 CALM      30.03F
FORT MADISON * SUNNY     79  52  38 S9        30.03F
KEOKUK *       PTSUNNY   79  54  41 VRB5      30.01F
OSKALOOSA *      N/A     77  48  36 CALM      30.04F
CENTERVILLE *  SUNNY     75  54  46 CALM      30.04F
OTTUMWA        SUNNY     76  50  40 W6        30.03F
WASHINGTON *   MOSUNNY   79  50  36 SW7       30.03F
$$

ABBREVIATIONS USED IN REMARKS
   TC - TEMPERATURES IN CELSIUS
  WCI - WIND CHILL INDEX
   HX - HEAT INDEX
  VSB - VISIBILITY
$$




USA.gov is the U.S. government's official web portal to all federal, state and local government web resources and services.